Regional Weather Roundup
Issued by NWS

Home | Current Version | Previous Version | Graphics & Text | Print | Product List | Glossary On
Versions: 1 2 3 4 5 6 7 8 9 10 11 12 13 14 15 16 17 18 19 20 21 22 23 24 25 26 27 28 29 30 31 32 33 34 35 36 37 38 39 40 41 42 43 44 45 46 47 48 49 50
000
ASUS43 KLOT 211503
RWRIL

ILLINOIS REGIONAL WEATHER ROUNDUP
NATIONAL WEATHER SERVICE CHICAGO/ROMEOVILLE IL
900 AM CST TUE NOV 21 2017

NOTE: "FAIR" INDICATES FEW OR NO CLOUDS BELOW 12,000 FEET WITH NO
SIGNIFICANT WEATHER AND/OR OBSTRUCTIONS TO VISIBILITY.

* THESE STATIONS ARE NOT UNDER NWS QUALITY CONTROL. THEY ALSO MAY NOT
  REPORT WEATHER SUCH AS PRECIPITATION OR FOG.

ILZ001-002-007-009-015-016-024-211600-
NORTHWEST ILLINOIS

CITY           SKY/WX    TMP DP  RH WIND       PRES   REMARKS
MOLINE         LGT RAIN  39  28  64 NW15G24   29.87R WCI  31
STERLING*      LGT RAIN N/A N/A N/A MISG      29.83R
SAVANNA*       CLOUDY    39  18  42 NW17      29.84R WCI  30
$$

ILZ003-004-008-010-011-017-018-211600-
NORTH CENTRAL ILLINOIS

CITY           SKY/WX    TMP DP  RH WIND       PRES   REMARKS
ROCKFORD       CLOUDY    42  19  39 NW21G28   29.80R
FREEPORT*      CLOUDY    38  16  41 W20G30    29.82R WCI  28
ROCHELLE*      LGT RAIN  40  34  80 W12       29.80R
DE KALB*       DRIZZLE   40  34  80 W13       29.79R
PERU*          CLOUDY    42  31  65 W15G22    29.84R
$$

ILZ005-006-012>014-019>023-211600-
NORTHEAST ILLINOIS

CITY           SKY/WX    TMP DP  RH WIND       PRES   REMARKS
CHICAGO-OHARE  LGT RAIN  44  32  62 W14       29.74R
CHICAGO-MIDWAY NOT AVBL
AURORA         LGT RAIN  41  35  79 W14       29.78R
LANSING*       CLOUDY    41  35  76 SW15      29.77R
JOLIET*        CLOUDY    44  35  68 SW9       29.79R
WAUKEGAN       CLOUDY    45  32  60 W8        29.71R
DUPAGE AIRPORT LGT RAIN  41  34  76 SW13      29.76R
KANKAKEE*      CLOUDY    41  33  73 SW14      29.81R
WHEELING       CLOUDY    45  33  63 W13       29.75R
MORRIS*        CLOUDY    42  33  71 W10       29.78R
ROMEOVILLE*    CLOUDY    43  34  71 SW16      29.77R
NORTHERLY ISL    N/A     44  31  60 W9          N/A
$$

LMZ740>746-211600-
SOUTHERN LAKE MICHIGAN

STATION/POSITION SKY/WX   TEMP    WIND        PRES    VSBY  WAVE
                          AIR SEA DIR/SP/G                  HT/PER
                          (F)     (DEG/KT/KT) (MB)    (MI)  (FT/S)
SOUTHERN BUOY              46 48  260/ 23/ 27 1003.8          6/ 7
HARRISON CRIB              45     250/ 21/ 23   N/A
BURNHAM HARBOR             44     200/ 11/ 15   N/A
CALUMET HARBOR             43     210/ 12/ 19 1006.6R
BURNS HARBOR               43     220/ 15/ 23 1008.1R
MICHIGAN CITY              43     200/ 17/ 20   N/A
$$

ILZ025>027-034>036-040-047-049-050-058-095>099-211600-
WEST-CENTRAL ILLINOIS

CITY           SKY/WX    TMP DP  RH WIND       PRES   REMARKS
QUINCY         CLOUDY    45  33  63 W6        29.89R
MACOMB*        CLOUDY    46  32  58 NW14      29.90R
JACKSONVILLE*  CLOUDY    45  33  63 SW8       29.88R
PITTSFIELD*    CLOUDY    48  34  57 W8        29.90R
$$

ILZ028>032-037-038-041>044-048-051>054-059>061-211600-
CENTRAL ILLINOIS

CITY           SKY/WX    TMP DP  RH WIND       PRES   REMARKS
PONTIAC        CLOUDY    43  36  75 SW17      29.83R
BLOOMINGTON    CLOUDY    41  33  73 SW12      29.85R
DECATUR        MOSUNNY   45  33  63 SW17      29.87R
PEORIA         PTSUNNY   46  34  62 W7        29.85R
LACON*         CLOUDY    44  32  63 W6        29.84R
LINCOLN*       PTSUNNY   47  35  63 SW5       29.86R
SPRINGFIELD    MOSUNNY   46  33  60 SW7       29.88R
TAYLORVILLE    MOSUNNY   43  33  68 SW8       29.88R
$$

ILZ033-039-045-046-055>057-062-063-211600-
EAST-CENTRAL ILLINOIS

CITY           SKY/WX    TMP DP  RH WIND       PRES   REMARKS
CHAMPAIGN      MOSUNNY   45  34  65 SW18      29.85R
DANVILLE*      CLOUDY    43  32  65 SW18G25   29.82R
MATTOON        SUNNY     44  32  62 SW13G21   29.87R
PARIS*         SUNNY     45  34  65 SW20      29.89R
$$

ILZ079-100>102-211600-
SOUTHWEST ILLINOIS

CITY           SKY/WX    TMP DP  RH WIND       PRES   REMARKS
ALTON          CLOUDY    43  34  70 S9        29.92R
BELLEVILLE     MOSUNNY   46  32  57 SW12      29.91R
CAHOKIA*       MOSUNNY   47  30  51 SW5       29.92R
SPARTA*        MOSUNNY   43  31  63 S14       29.94R
$$

ILZ064>066-069>071-074>076-080>082-084>086-088>090-092>094-211600-
SOUTH-CENTRAL ILLINOIS

CITY           SKY/WX    TMP DP  RH WIND       PRES   REMARKS
CARBONDALE     SUNNY     45  32  60 SW13      29.97R
EFFINGHAM*     SUNNY     47  33  59 S16G22    29.93R
MARION         MOSUNNY   43  32  65 S12       29.98R
MT. VERNON     CLOUDY    47  33  58 SW16      29.95R
CENTRALIA*     PTSUNNY   47  34  59 SW13G18   29.92R
SALEM*         CLOUDY    47  32  55 S14       29.92R
METROPOLIS*    SUNNY     46  32  57 S10       30.01S
$$

ILZ067-068-072-073-078-083-087-091-211600-
SOUTHEAST ILLINOIS

CITY           SKY/WX    TMP DP  RH WIND       PRES   REMARKS
LAWRENCEVILLE  SUNNY     46  32  58 SW16      29.94S
FLORA*         SUNNY     46  33  60 SW15      29.93R
FAIRFIELD*     MOSUNNY   46  32  57 S3        29.94R
HARRISBURG*    MOSUNNY   44  32  63 SW7       29.99R
ROBINSON*      SUNNY     46  31  56 SW15      29.93R
CARMI*         SUNNY     46  32  59 S14G20    29.96R
$$

ABBREVIATIONS USED IN REMARKS
   TC - TEMPERATURE IN CELSIUS
  WCI - WIND CHILL INDEX
   HX - HEAT INDEX
  VSB - VISIBILITY
$$





USA.gov is the U.S. government's official web portal to all federal, state and local government web resources and services.